Location: San Antonio
(29.4240°N, 98.4930°W)
Time: 09:01:14
(UTC-05:00)

ACS3 Solar Sail - Pass Details

Date: 24 June 2024
Orbit: 992 x 1023 km, 97.4° (Epoch: 11 July)

Event Time Altitude Azimuth Distance (km) Brightness Sun altitude
Exits shadow 22:41:16 39° 108° (ESE) 1,444 5.2 -22.4°
Maximum altitude 22:42:41 46° 74° (ENE) 1,318 5.2 -22.6°
Drops below altitude 10° 22:48:33 10° 3° (N) 2,760 7.7 -23.5°
Sets 22:51:07 0° 358° (N) 3,711 8.6 -23.9°
